Temp
-8 -9 -9 -10 -11 -11 -11 -12 -12 -12 -13 -13 -13 -13 -14 -14 -14 -15 -15 -15 -15 -15 -15 -15 -15 -15 -14 -14 -14 -14 -15 -15 -16 -16 -17 -17 -17 -17 -17 -17 -17 -17 -17 -17 -17 -18 -17 -17 -17 -17 -17 -17 -17 -17 -17 -17 -17 -17 -17 -17 -17 -16 -16
-8 -9 -10 -10 -11 -11 -12 -12 -12 -13 -13 -13 -13 -14 -14 -15 -15 -15 -15 -16 -16 -15 -15 -15 -15 -15 -15 -15 -15 -15 -15 -15 -16 -16 -17 -17 -17 -18 -18 -17 -17 -18 -18 -18 -18 -18 -18 -18 -18 -17 -17 -17 -17 -17 -17 -17 -17 -17 -17 -17 -17 -17 -17
-9 -9 -10 -10 -11 -12 -12 -12 -13 -13 -13 -14 -14 -14 -15 -15 -15 -16 -16 -16 -16 -16 -16 -15 -15 -15 -15 -15 -15 -15 -15 -16 -16 -16 -17 -17 -18 -18 -18 -18 -18 -18 -18 -18 -18 -19 -19 -18 -18 -18 -18 -18 -18 -18 -18 -18 -17 -18 -18 -17 -17 -17 -17
-9 -9 -10 -11 -11 -12 -12 -13 -13 -14 -14 -14 -14 -15 -15 -15 -16 -16 -17 -17 -17 -16 -16 -16 -15 -15 -15 -15 -15 -15 -16 -16 -16 -17 -17 -17 -18 -18 -18 -18 -19 -19 -19 -19 -19 -19 -19 -19 -18 -18 -18 -18 -18 -18 -18 -18 -18 -18 -18 -18 -18 -18 -18
-9 -10 -10 -11 -11 -12 -13 -13 -14 -14 -14 -14 -15 -15 -15 -16 -16 -17 -17 -17 -17 -17 -16 -16 -15 -15 -15 -15 -15 -16 -16 -17 -17 -17 -18 -18 -18 -18 -19 -19 -19 -19 -19 -19 -19 -19 -19 -19 -19 -19 -19 -19 -19 -19 -19 -19 -19 -19 -19 -18 -18 -18 -18
-10 -10 -10 -11 -12 -12 -13 -13 -14 -14 -14 -15 -15 -15 -16 -16 -17 -17 -17 -17 -17 -17 -17 -16 -16 -16 -16 -16 -16 -16 -17 -18 -18 -18 -18 -19 -19 -19 -19 -20 -20 -20 -20 -20 -20 -20 -20 -20 -19 -19 -19 -19 -19 -20 -20 -20 -19 -19 -19 -19 -19 -18 -18
-10 -10 -11 -12 -12 -13 -13 -14 -14 -14 -15 -15 -15 -16 -16 -17 -17 -17 -18 -18 -17 -17 -17 -16 -16 -16 -16 -17 -17 -18 -18 -18 -19 -19 -19 -19 -19 -20 -20 -20 -20 -20 -20 -20 -20 -21 -21 -20 -20 -20 -20 -19 -20 -20 -20 -20 -20 -20 -20 -19 -19 -19 -18
-10 -11 -12 -12 -13 -13 -14 -14 -14 -15 -15 -15 -16 -16 -17 -17 -17 -18 -18 -18 -18 -17 -17 -17 -17 -17 -17 -18 -18 -18 -19 -19 -19 -19 -19 -20 -20 -20 -21 -21 -21 -21 -21 -21 -21 -21 -21 -21 -20 -20 -20 -20 -20 -20 -20 -20 -20 -20 -20 -20 -20 -19 -19
-11 -12 -12 -13 -13 -13 -14 -14 -14 -15 -15 -16 -16 -17 -17 -18 -18 -18 -18 -18 -17 -17 -17 -17 -17 -17 -18 -18 -19 -19 -19 -19 -19 -20 -20 -20 -21 -21 -22 -22 -22 -22 -22 -21 -21 -21 -21 -21 -21 -21 -21 -20 -20 -20 -20 -20 -20 -20 -20 -20 -20 -19 -19
-11 -12 -12 -13 -13 -14 -14 -14 -15 -15 -16 -16 -17 -17 -18 -18 -18 -18 -18 -18 -18 -17 -17 -18 -18 -18 -18 -19 -19 -19 -19 -20 -20 -21 -21 -21 -21 -22 -22 -22 -22 -22 -21 -21 -21 -21 -21 -21 -21 -21 -21 -21 -21 -21 -21 -20 -20 -20 -20 -20 -20 -20 -20
-12 -12 -13 -13 -14 -14 -14 -15 -15 -16 -16 -17 -17 -18 -18 -18 -18 -18 -18 -18 -19 -19 -19 -19 -19 -19 -19 -20 -20 -20 -20 -20 -21 -21 -21 -21 -21 -22 -22 -22 -22 -21 -21 -21 -21 -21 -21 -21 -21 -21 -21 -21 -21 -21 -21 -20 -20 -20 -20 -20 -20 -20 -20
-12 -13 -13 -14 -14 -14 -15 -15 -16 -16 -17 -17 -18 -18 -18 -19 -19 -19 -20 -20 -20 -20 -20 -20 -21 -20 -20 -21 -21 -21 -21 -21 -21 -21 -21 -21 -21 -21 -21 -21 -21 -21 -21 -21 -21 -21 -21 -21 -21 -21 -21 -21 -21 -21 -21 -21 -21 -21 -20 -21 -21 -21 -21
-13 -14 -14 -14 -15 -15 -15 -16 -16 -17 -17 -18 -18 -18 -19 -19 -19 -20 -20 -21 -21 -21 -21 -21 -21 -21 -21 -21 -21 -21 -21 -21 -21 -21 -21 -21 -21 -21 -21 -21 -21 -21 -22 -22 -22 -22 -22 -22 -22 -22 -21 -21 -21 -21 -21 -21 -21 -21 -21 -21 -21 -21 -21
-14 -14 -15 -15 -15 -16 -16 -17 -17 -17 -18 -18 -18 -18 -19 -19 -20 -21 -21 -21 -21 -21 -21 -21 -21 -21 -21 -22 -21 -21 -21 -21 -21 -21 -21 -21 -21 -21 -21 -21 -21 -21 -22 -22 -22 -22 -22 -21 -21 -21 -21 -21 -21 -21 -21 -21 -21 -21 -21 -21 -22 -22 -22
-14 -15 -15 -15 -16 -16 -17 -17 -18 -18 -18 -18 -19 -19 -19 -19 -20 -21 -21 -21 -21 -21 -21 -21 -21 -21 -21 -21 -21 -21 -21 -21 -21 -21 -21 -21 -21 -21 -21 -21 -21 -22 -22 -22 -22 -21 -21 -21 -21 -21 -21 -21 -21 -22 -22 -21 -21 -21 -22 -22 -22 -22 -22
-15 -15 -16 -16 -16 -17 -17 -18 -18 -18 -19 -19 -19 -19 -19 -20 -20 -20 -20 -20 -20 -20 -20 -21 -21 -21 -21 -21 -21 -21 -21 -21 -21 -21 -21 -21 -21 -21 -21 -21 -21 -21 -22 -21 -21 -21 -21 -21 -21 -21 -21 -21 -22 -22 -22 -22 -22 -22 -22 -22 -22 -23 -22
-15 -16 -16 -17 -17 -18 -18 -18 -19 -19 -19 -19 -19 -19 -20 -20 -20 -20 -20 -19 -19 -19 -20 -20 -21 -21 -21 -21 -21 -21 -21 -22 -21 -21 -22 -21 -21 -21 -21 -21 -21 -22 -22 -21 -21 -21 -21 -21 -21 -21 -21 -22 -22 -22 -22 -22 -22 -22 -23 -23 -23 -23 -23
-16 -16 -17 -17 -18 -18 -18 -19 -19 -19 -19 -19 -19 -19 -20 -20 -20 -20 -20 -20 -20 -20 -20 -20 -21 -22 -22 -22 -22 -22 -22 -21 -21 -22 -22 -22 -22 -22 -22 -22 -22 -22 -22 -22 -21 -21 -21 -21 -21 -21 -22 -22 -22 -22 -22 -22 -23 -23 -23 -23 -23 -24 -23
-17 -17 -17 -18 -18 -19 -19 -19 -19 -19 -19 -19 -19 -20 -20 -20 -20 -20 -20 -20 -20 -20 -20 -21 -22 -22 -22 -22 -22 -22 -22 -21 -21 -22 -22 -22 -22 -22 -22 -22 -22 -22 -22 -22 -22 -22 -22 -22 -22 -22 -22 -22 -22 -22 -22 -23 -23 -23 -23 -24 -24 -24 -24
-17 -17 -18 -18 -19 -19 -19 -19 -19 -19 -20 -20 -20 -20 -20 -21 -21 -21 -21 -21 -21 -21 -21 -21 -22 -22 -22 -22 -22 -22 -22 -22 -21 -21 -21 -21 -22 -22 -22 -22 -22 -22 -22 -22 -22 -22 -22 -22 -22 -22 -22 -22 -22 -23 -23 -23 -23 -23 -24 -24 -24 -24 -24
-18 -18 -18 -19 -19 -19 -19 -20 -20 -20 -20 -20 -20 -20 -21 -21 -21 -21 -21 -21 -21 -21 -21 -22 -22 -22 -22 -22 -22 -22 -22 -22 -21 -21 -21 -21 -22 -22 -22 -22 -22 -22 -22 -22 -22 -22 -22 -22 -22 -22 -22 -23 -23 -23 -23 -23 -23 -24 -24 -24 -24 -25 -25
-18 -18 -19 -19 -19 -19 -20 -20 -20 -20 -20 -20 -20 -21 -21 -21 -21 -21 -21 -22 -22 -22 -22 -22 -22 -22 -22 -23 -23 -22 -22 -22 -22 -22 -22 -22 -22 -23 -23 -23 -23 -23 -22 -22 -22 -22 -22 -22 -22 -23 -23 -23 -24 -24 -24 -24 -24 -24 -25 -25 -25 -25 -25
-19 -19 -19 -19 -19 -20 -20 -20 -20 -20 -21 -21 -21 -21 -21 -21 -21 -21 -22 -23 -23 -23 -23 -23 -23 -23 -22 -23 -23 -23 -22 -22 -22 -22 -22 -22 -23 -23 -23 -23 -23 -23 -22 -22 -22 -22 -22 -23 -23 -24 -24 -24 -25 -25 -25 -25 -25 -25 -25 -25 -25 -25 -25
-19 -19 -20 -20 -20 -20 -20 -20 -20 -21 -21 -21 -21 -21 -21 -21 -21 -22 -22 -23 -23 -23 -23 -23 -23 -23 -23 -23 -23 -23 -23 -22 -22 -22 -22 -23 -23 -23 -23 -23 -23 -23 -23 -23 -23 -23 -23 -23 -24 -24 -25 -25 -25 -25 -25 -25 -25 -25 -25 -25 -25 -25 -25
-19 -20 -20 -20 -20 -20 -20 -20 -21 -21 -21 -22 -22 -22 -21 -21 -21 -22 -22 -22 -22 -22 -23 -23 -23 -23 -23 -23 -23 -23 -23 -23 -23 -23 -23 -23 -23 -23 -23 -23 -23 -23 -23 -23 -23 -23 -23 -23 -24 -24 -24 -25 -25 -25 -25 -25 -25 -25 -25 -25 -25 -25 -25
-20 -20 -20 -21 -21 -21 -20 -21 -21 -21 -21 -22 -22 -22 -22 -22 -22 -22 -22 -22 -22 -22 -23 -23 -23 -23 -23 -23 -23 -23 -23 -23 -23 -23 -23 -23 -23 -24 -24 -24 -24 -24 -24 -24 -24 -24 -23 -24 -24 -24 -24 -24 -25 -25 -25 -25 -25 -25 -25 -25 -25 -25 -25
-20 -21 -21 -21 -21 -21 -21 -21 -21 -21 -21 -22 -22 -23 -22 -22 -22 -22 -22 -22 -22 -23 -23 -24 -24 -24 -24 -24 -24 -24 -24 -24 -24 -24 -24 -24 -24 -24 -24 -24 -24 -24 -24 -24 -24 -24 -24 -24 -24 -24 -24 -24 -24 -25 -25 -25 -24 -24 -25 -25 -25 -25 -24
-21 -21 -21 -21 -21 -21 -21 -21 -21 -21 -21 -22 -23 -23 -23 -22 -22 -22 -22 -22 -22 -23 -24 -24 -24 -24 -24 -24 -24 -24 -24 -24 -24 -24 -24 -24 -24 -24 -24 -25 -25 -25 -25 -24 -24 -24 -24 -24 -24 -24 -24 -24 -24 -25 -25 -25 -25 -25 -25 -25 -25 -25 -25
-21 -21 -21 -22 -22 -22 -22 -21 -21 -21 -22 -23 -23 -23 -23 -23 -23 -23 -23 -23 -23 -24 -24 -24 -24 -24 -24 -24 -24 -24 -24 -24 -24 -24 -24 -24 -25 -25 -25 -25 -25 -25 -25 -25 -24 -24 -24 -25 -25 -25 -25 -24 -24 -25 -25 -25 -25 -25 -25 -25 -25 -25 -25
-21 -22 -22 -22 -22 -22 -22 -22 -22 -22 -23 -23 -23 -23 -23 -23 -23 -23 -23 -23 -24 -24 -24 -25 -25 -24 -24 -24 -24 -24 -24 -24 -24 -24 -25 -25 -25 -25 -25 -25 -25 -25 -25 -25 -25 -25 -25 -25 -25 -25 -25 -25 -25 -25 -25 -25 -25 -25 -25 -25 -25 -25 -25
-22 -22 -22 -22 -22 -22 -22 -22 -23 -23 -23 -23 -23 -23 -23 -23 -24 -24 -24 -24 -24 -25 -25 -25 -25 -25 -24 -24 -24 -24 -24 -24 -24 -25 -25 -25 -25 -25 -25 -25 -25 -25 -25 -25 -25 -25 -25 -25 -25 -25 -25 -25 -25 -25 -25 -25 -26 -26 -26 -26 -26 -25 -25
-22 -22 -22 -22 -22 -22 -22 -23 -23 -23 -24 -24 -24 -24 -24 -24 -25 -25 -24 -24 -24 -24 -24 -24 -24 -24 -24 -24 -24 -24 -24 -24 -24 -25 -25 -25 -25 -25 -25 -26 -26 -25 -25 -25 -25 -25 -25 -25 -25 -25 -25 -25 -25 -25 -25 -26 -26 -26 -26 -26 -26 -26 -25
-22 -22 -22 -23 -23 -23 -23 -23 -24 -24 -24 -24 -25 -25 -25 -25 -25 -25 -24 -24 -24 -24 -24 -24 -24 -24 -24 -24 -24 -24 -24 -24 -24 -24 -25 -25 -25 -25 -25 -26 -26 -25 -25 -25 -25 -25 -25 -25 -25 -25 -25 -25 -26 -26 -26 -26 -26 -26 -26 -26 -26 -26 -26
-22 -22 -23 -23 -23 -24 -24 -24 -24 -24 -25 -25 -25 -25 -25 -25 -25 -24 -24 -25 -25 -25 -24 -24 -24 -24 -24 -24 -24 -24 -24 -24 -24 -25 -25 -25 -25 -25 -26 -26 -26 -26 -26 -26 -25 -25 -26 -25 -25 -25 -26 -26 -26 -26 -26 -26 -26 -26 -26 -26 -26 -26 -26
-22 -22 -23 -23 -23 -24 -24 -24 -24 -24 -24 -25 -25 -24 -24 -25 -25 -24 -24 -24 -25 -25 -25 -25 -24 -24 -24 -24 -24 -24 -24 -24 -24 -25 -25 -25 -25 -25 -26 -26 -26 -26 -26 -26 -26 -26 -26 -25 -25 -26 -26 -26 -26 -26 -26 -26 -26 -26 -26 -26 -26 -26 -26
-22 -22 -23 -23 -23 -24 -24 -24 -24 -25 -25 -24 -24 -24 -25 -25 -24 -24 -24 -24 -24 -25 -25 -25 -24 -24 -24 -24 -24 -24 -24 -24 -25 -25 -25 -25 -25 -25 -26 -26 -26 -26 -26 -26 -26 -26 -26 -26 -26 -26 -26 -26 -26 -26 -26 -26 -26 -26 -26 -26 -26 -26 -26
Height
1470 1470 1470 1470 1470 1470 1471 1471 1471 1471 1471 1470 1470 1469 1469 1468 1467 1467 1466 1465 1465 1465 1464 1463 1462 1462 1462 1461 1460 1459 1459 1459 1458 1458 1457 1457 1456 1456 1456 1455 1454 1450 1444 1443 1445 1444 1443 1444 1443 1442 1442 1441 1439 1439 1439 1438 1437 1436 1434 1432 1431 1430 1429
1466 1466 1466 1466 1466 1467 1467 1467 1467 1467 1467 1466 1466 1466 1465 1465 1464 1463 1462 1462 1461 1461 1460 1459 1458 1458 1458 1457 1456 1455 1455 1454 1454 1454 1453 1453 1453 1452 1452 1451 1450 1447 1442 1439 1440 1441 1440 1440 1439 1438 1437 1437 1436 1435 1435 1434 1433 1433 1431 1429 1427 1426 1425
1463 1462 1462 1462 1462 1463 1463 1463 1463 1463 1463 1463 1462 1462 1461 1461 1460 1459 1459 1458 1457 1457 1456 1455 1454 1454 1454 1453 1451 1451 1451 1450 1450 1450 1449 1448 1449 1448 1447 1447 1447 1444 1441 1436 1435 1436 1436 1435 1435 1434 1433 1433 1432 1431 1431 1430 1429 1429 1427 1426 1424 1422 1421
1459 1458 1458 1458 1458 1458 1459 1459 1459 1459 1459 1459 1459 1458 1457 1457 1456 1455 1455 1454 1453 1453 1452 1451 1450 1450 1450 1449 1447 1446 1447 1446 1446 1445 1445 1444 1444 1444 1443 1443 1443 1441 1439 1435 1432 1432 1433 1432 1431 1430 1430 1429 1428 1427 1427 1426 1425 1425 1424 1423 1421 1419 1418
1456 1455 1454 1453 1454 1454 1455 1455 1455 1455 1455 1455 1455 1454 1453 1453 1452 1451 1451 1450 1449 1449 1448 1447 1446 1446 1446 1444 1443 1442 1442 1442 1441 1441 1440 1439 1439 1439 1438 1438 1438 1437 1436 1433 1430 1428 1429 1429 1427 1426 1426 1426 1425 1423 1423 1422 1422 1421 1420 1419 1418 1417 1415
1452 1451 1450 1450 1450 1450 1451 1451 1451 1451 1451 1451 1451 1450 1449 1449 1448 1447 1447 1446 1445 1445 1444 1443 1442 1442 1441 1440 1439 1438 1438 1438 1437 1437 1436 1436 1435 1435 1434 1433 1433 1432 1431 1430 1427 1426 1425 1424 1424 1423 1422 1423 1422 1421 1420 1419 1418 1418 1417 1416 1414 1413 1413
1448 1447 1447 1446 1446 1446 1447 1447 1447 1447 1447 1447 1446 1446 1445 1444 1444 1443 1442 1441 1441 1440 1440 1439 1438 1438 1437 1437 1436 1435 1434 1434 1434 1433 1432 1432 1431 1431 1430 1429 1428 1428 1427 1425 1424 1423 1422 1421 1421 1420 1419 1420 1420 1418 1417 1416 1415 1413 1413 1413 1411 1410 1409
1444 1443 1443 1442 1442 1442 1442 1443 1443 1443 1443 1443 1442 1442 1441 1440 1440 1439 1438 1437 1436 1436 1436 1435 1434 1434 1433 1433 1432 1431 1431 1430 1430 1429 1428 1428 1428 1427 1426 1425 1424 1424 1423 1422 1421 1420 1419 1418 1417 1417 1417 1417 1417 1415 1414 1414 1412 1409 1409 1409 1408 1407 1406
1439 1439 1439 1439 1438 1438 1438 1438 1439 1439 1439 1439 1438 1438 1437 1436 1435 1435 1434 1433 1432 1432 1431 1431 1430 1430 1429 1429 1428 1428 1428 1427 1426 1426 1425 1424 1424 1423 1422 1422 1421 1420 1420 1419 1418 1417 1416 1415 1414 1414 1414 1414 1414 1413 1411 1411 1410 1407 1406 1405 1404 1403 1403
1435 1435 1435 1435 1435 1435 1434 1434 1435 1435 1435 1435 1434 1433 1432 1431 1431 1430 1429 1428 1427 1427 1427 1427 1426 1426 1425 1425 1424 1424 1424 1424 1423 1423 1422 1421 1421 1420 1420 1419 1418 1418 1417 1417 1416 1415 1414 1413 1412 1412 1412 1411 1411 1410 1409 1408 1407 1404 1403 1402 1399 1398 1399
1430 1431 1431 1431 1431 1430 1430 1430 1431 1431 1431 1430 1430 1429 1428 1427 1426 1425 1424 1423 1422 1422 1422 1422 1422 1422 1421 1421 1421 1420 1420 1420 1420 1419 1419 1418 1418 1417 1417 1417 1416 1415 1415 1414 1413 1412 1412 1411 1409 1409 1409 1409 1408 1408 1407 1405 1404 1402 1400 1399 1396 1394 1394
1426 1427 1427 1427 1427 1426 1426 1426 1427 1427 1427 1426 1426 1426 1424 1423 1422 1421 1420 1419 1419 1419 1418 1418 1418 1417 1417 1417 1417 1417 1417 1417 1416 1416 1415 1415 1414 1414 1413 1413 1413 1412 1412 1411 1410 1409 1409 1408 1407 1406 1406 1406 1405 1404 1403 1402 1401 1400 1398 1396 1394 1392 1391
1422 1423 1423 1423 1423 1422 1422 1422 1423 1423 1423 1422 1422 1422 1421 1420 1418 1417 1416 1416 1415 1415 1415 1415 1414 1414 1413 1413 1413 1413 1413 1413 1412 1412 1411 1411 1410 1410 1410 1409 1409 1409 1408 1408 1407 1406 1405 1405 1404 1403 1402 1403 1402 1400 1399 1399 1398 1397 1395 1393 1392 1390 1389
1418 1418 1419 1419 1419 1418 1418 1418 1419 1419 1419 1419 1418 1418 1417 1415 1414 1413 1412 1412 1412 1411 1411 1411 1410 1410 1410 1410 1410 1410 1410 1409 1408 1408 1407 1407 1406 1406 1406 1406 1405 1405 1405 1405 1404 1403 1402 1402 1402 1400 1399 1400 1399 1397 1396 1395 1394 1394 1393 1391 1389 1388 1387
1414 1414 1414 1414 1414 1414 1413 1414 1415 1415 1414 1414 1414 1413 1412 1411 1409 1409 1408 1408 1407 1407 1407 1407 1406 1406 1406 1406 1406 1406 1406 1405 1405 1404 1404 1403 1403 1403 1403 1403 1402 1402 1402 1402 1402 1400 1399 1399 1398 1397 1396 1396 1395 1394 1393 1392 1391 1391 1390 1388 1386 1385 1385
1409 1410 1410 1410 1409 1409 1409 1410 1411 1410 1410 1410 1409 1409 1407 1406 1404 1404 1403 1403 1403 1403 1403 1403 1402 1402 1401 1401 1402 1402 1402 1402 1401 1401 1400 1400 1400 1400 1400 1400 1400 1400 1400 1400 1399 1398 1397 1396 1395 1395 1394 1393 1392 1391 1391 1390 1389 1388 1387 1385 1383 1381 1381
1405 1406 1406 1405 1405 1405 1405 1406 1406 1406 1406 1405 1405 1404 1402 1401 1400 1399 1398 1399 1399 1399 1398 1398 1398 1398 1397 1398 1398 1398 1399 1399 1398 1397 1396 1396 1396 1396 1396 1397 1397 1397 1397 1397 1397 1396 1395 1393 1393 1393 1392 1391 1389 1389 1389 1388 1386 1385 1384 1382 1380 1378 1377
1401 1401 1401 1401 1401 1401 1401 1401 1402 1402 1401 1401 1400 1399 1397 1396 1395 1394 1394 1394 1394 1394 1394 1394 1394 1394 1394 1394 1394 1395 1395 1396 1395 1394 1394 1393 1394 1393 1393 1394 1394 1394 1394 1393 1393 1392 1391 1390 1390 1390 1390 1388 1387 1386 1386 1385 1383 1382 1381 1380 1378 1376 1373
1397 1397 1397 1397 1397 1397 1397 1397 1397 1397 1396 1396 1395 1395 1393 1392 1391 1390 1390 1390 1390 1390 1390 1390 1390 1390 1390 1390 1391 1391 1392 1393 1392 1392 1391 1391 1391 1391 1391 1391 1391 1390 1390 1390 1390 1389 1388 1387 1387 1387 1386 1386 1385 1383 1383 1382 1380 1379 1378 1377 1375 1374 1371
1393 1393 1393 1393 1393 1393 1393 1392 1392 1392 1391 1391 1390 1390 1389 1388 1387 1386 1386 1386 1386 1386 1386 1386 1386 1387 1387 1387 1387 1388 1389 1389 1390 1389 1388 1388 1388 1388 1388 1388 1388 1387 1387 1386 1386 1386 1385 1385 1384 1383 1383 1382 1382 1381 1379 1378 1377 1376 1375 1374 1372 1371 1369
1389 1389 1389 1389 1389 1388 1388 1388 1387 1387 1387 1386 1386 1386 1385 1384 1383 1382 1382 1382 1382 1382 1382 1383 1383 1384 1384 1384 1384 1385 1385 1387 1387 1386 1385 1385 1385 1384 1384 1385 1385 1384 1384 1383 1383 1382 1382 1381 1381 1380 1379 1378 1377 1376 1375 1375 1374 1372 1372 1371 1369 1368 1366
1385 1385 1385 1385 1385 1384 1384 1384 1383 1382 1382 1381 1381 1381 1381 1380 1379 1379 1379 1378 1378 1378 1379 1379 1380 1380 1381 1381 1381 1382 1383 1384 1384 1383 1382 1383 1383 1381 1381 1382 1381 1381 1380 1379 1379 1378 1378 1377 1376 1375 1375 1374 1373 1372 1371 1371 1370 1369 1368 1367 1366 1365 1362
1381 1381 1381 1381 1380 1380 1380 1379 1378 1377 1377 1377 1377 1377 1377 1377 1376 1376 1376 1375 1375 1375 1375 1376 1376 1377 1378 1378 1379 1380 1381 1381 1381 1380 1380 1380 1380 1379 1379 1379 1378 1377 1377 1376 1375 1374 1373 1373 1372 1371 1370 1370 1369 1368 1367 1367 1366 1365 1364 1363 1362 1361 1359
1377 1377 1376 1376 1376 1376 1376 1375 1374 1373 1372 1372 1372 1373 1373 1373 1373 1373 1372 1372 1371 1371 1372 1372 1373 1373 1374 1375 1376 1377 1378 1377 1377 1377 1377 1377 1377 1377 1377 1376 1375 1374 1373 1372 1371 1370 1369 1369 1368 1367 1366 1366 1365 1365 1364 1363 1362 1361 1360 1359 1357 1356 1355
1373 1373 1372 1371 1371 1371 1371 1371 1370 1369 1369 1368 1368 1368 1369 1369 1369 1369 1368 1368 1368 1368 1369 1369 1369 1370 1371 1372 1373 1373 1374 1374 1374 1375 1374 1374 1374 1374 1373 1373 1372 1371 1370 1369 1368 1366 1365 1365 1364 1363 1362 1362 1361 1361 1360 1359 1358 1357 1356 1355 1353 1353 1352
1369 1369 1368 1367 1366 1367 1367 1367 1366 1365 1365 1364 1364 1364 1365 1365 1364 1364 1364 1364 1364 1365 1365 1366 1366 1367 1367 1368 1369 1370 1370 1371 1371 1372 1372 1372 1371 1371 1370 1370 1369 1368 1367 1365 1364 1363 1362 1361 1360 1359 1359 1358 1358 1357 1356 1355 1354 1354 1353 1352 1350 1349 1349
1365 1364 1363 1363 1362 1362 1362 1362 1362 1361 1361 1361 1360 1361 1361 1361 1361 1361 1361 1361 1361 1361 1362 1363 1364 1364 1364 1365 1366 1366 1367 1368 1368 1368 1368 1368 1368 1368 1367 1367 1366 1365 1364 1362 1361 1360 1359 1358 1357 1356 1356 1355 1354 1354 1353 1352 1351 1351 1350 1349 1347 1347 1346
1361 1360 1360 1359 1358 1358 1357 1357 1357 1357 1357 1357 1357 1357 1357 1357 1357 1357 1357 1358 1358 1359 1359 1360 1361 1361 1362 1362 1363 1363 1364 1364 1365 1365 1365 1365 1365 1365 1364 1364 1363 1362 1361 1359 1358 1357 1356 1355 1354 1354 1353 1352 1352 1351 1350 1349 1348 1348 1347 1346 1345 1344 1343
1356 1356 1356 1355 1354 1354 1353 1353 1353 1354 1354 1353 1354 1354 1354 1354 1354 1354 1354 1355 1355 1356 1356 1357 1357 1358 1359 1359 1360 1360 1361 1361 1362 1362 1362 1363 1362 1362 1361 1361 1360 1359 1358 1356 1355 1354 1353 1353 1352 1351 1350 1350 1349 1349 1348 1347 1346 1346 1345 1344 1343 1342 1341
1353 1352 1352 1351 1350 1350 1350 1349 1350 1351 1350 1350 1350 1351 1351 1351 1351 1351 1351 1352 1352 1352 1353 1353 1354 1355 1356 1356 1357 1357 1358 1359 1359 1360 1360 1360 1360 1359 1359 1358 1357 1356 1355 1354 1353 1352 1351 1350 1349 1349 1348 1348 1347 1347 1346 1345 1344 1343 1342 1342 1341 1340 1339
1349 1349 1348 1347 1347 1347 1347 1346 1346 1347 1347 1347 1348 1348 1348 1348 1348 1349 1349 1350 1350 1350 1350 1351 1351 1352 1353 1354 1354 1355 1356 1356 1357 1357 1357 1357 1357 1356 1356 1356 1355 1354 1352 1351 1350 1350 1349 1348 1347 1347 1346 1346 1345 1345 1344 1343 1342 1341 1340 1340 1339 1338 1337
1346 1345 1344 1344 1343 1343 1343 1343 1344 1344 1344 1344 1344 1345 1345 1346 1346 1347 1348 1348 1348 1347 1347 1348 1349 1349 1350 1351 1352 1352 1353 1354 1354 1354 1354 1354 1354 1354 1354 1353 1352 1351 1350 1349 1348 1348 1347 1346 1345 1345 1344 1344 1343 1342 1342 1341 1340 1339 1339 1338 1337 1336 1335
1342 1342 1341 1341 1340 1340 1340 1340 1341 1341 1341 1341 1342 1342 1343 1343 1343 1344 1345 1346 1345 1344 1344 1345 1345 1346 1347 1348 1349 1350 1350 1351 1351 1352 1352 1351 1351 1351 1351 1350 1349 1349 1348 1347 1346 1345 1345 1344 1343 1343 1343 1342 1341 1340 1340 1339 1338 1338 1337 1336 1335 1334 1333
1339 1339 1338 1338 1337 1337 1337 1338 1338 1338 1338 1338 1338 1339 1339 1339 1340 1340 1341 1342 1341 1341 1341 1341 1342 1343 1344 1345 1346 1346 1347 1348 1348 1349 1349 1348 1348 1348 1348 1348 1347 1346 1345 1344 1344 1343 1343 1342 1342 1341 1341 1340 1339 1339 1338 1337 1337 1336 1335 1335 1334 1333 1332
1336 1335 1335 1334 1334 1334 1334 1334 1335 1335 1335 1335 1335 1335 1335 1336 1335 1336 1337 1337 1337 1338 1338 1338 1338 1339 1340 1341 1342 1343 1344 1344 1345 1346 1346 1346 1346 1346 1345 1345 1344 1344 1343 1342 1342 1341 1341 1340 1340 1339 1339 1338 1338 1337 1336 1336 1335 1334 1334 1333 1332 1331 1330
1332 1332 1331 1330 1330 1330 1330 1330 1330 1331 1331 1331 1331 1331 1332 1331 1331 1331 1332 1333 1333 1334 1335 1335 1335 1336 1337 1338 1339 1340 1340 1341 1342 1342 1342 1343 1343 1343 1342 1342 1342 1341 1341 1340 1340 1339 1339 1338 1338 1337 1337 1336 1336 1336 1335 1335 1334 1333 1332 1332 1331 1330 1328
Wind_Speed
22 21 21 21 21 22 21 21 21 21 22 23 24 24 25 26 26 26 27 26 26 25 25 25 25 25 24 24 25 26 26 26 25 25 25 25 25 25 26 27 29 34 39 39 35 34 36 36 36 37 37 38 39 39 39 40 40 39 39 38 36 35 34
23 22 22 22 22 22 22 22 22 22 23 23 24 25 26 27 27 28 28 28 28 27 26 27 27 26 25 24 26 26 26 27 26 26 27 27 28 29 28 28 28 31 36 39 37 35 36 37 38 39 39 39 41 40 39 39 39 37 35 35 35 34 33
24 23 22 22 23 23 22 22 22 22 23 24 25 26 27 28 28 29 29 30 29 28 27 28 28 28 27 26 27 27 27 27 27 26 27 28 29 31 32 31 30 31 35 39 40 38 37 39 40 41 42 41 42 40 37 35 33 31 31 31 32 32 31
25 24 23 23 23 23 23 23 23 23 24 25 26 28 28 29 29 30 31 30 29 28 28 29 29 29 28 28 28 28 28 27 26 26 27 28 29 31 34 34 34 34 36 39 41 40 39 40 42 43 43 41 39 36 31 28 26 26 27 28 28 29 30
25 25 24 24 23 23 23 23 24 24 25 26 27 28 29 29 30 31 31 30 29 29 29 30 30 29 28 29 29 29 27 26 26 25 26 27 28 29 31 32 33 35 36 37 40 41 39 39 41 41 38 34 31 28 25 23 23 24 25 26 26 27 27
26 26 25 24 23 23 23 24 25 26 26 27 28 28 29 30 30 31 30 30 31 31 30 30 30 29 28 28 28 28 27 26 25 25 25 26 27 27 28 29 30 31 33 34 36 36 36 36 35 33 30 25 22 22 22 22 24 25 25 24 25 25 26
27 26 25 24 24 24 24 25 26 27 27 28 28 29 29 30 30 30 30 31 32 32 31 30 29 29 28 27 27 27 26 25 24 24 25 25 26 26 26 27 28 27 28 29 30 30 31 31 29 27 26 23 20 21 22 23 26 28 26 25 27 28 29
27 26 25 25 24 24 25 26 27 27 28 28 29 29 30 30 30 30 31 33 34 33 31 29 28 28 28 27 26 25 24 23 23 24 24 24 23 23 23 23 24 23 24 24 25 27 28 28 26 25 25 22 21 22 23 23 26 29 29 30 31 32 33
27 26 26 26 25 25 26 27 28 28 28 28 29 29 29 29 30 31 33 34 33 31 29 27 27 27 26 25 24 23 22 22 22 22 22 22 22 22 22 22 22 22 23 23 24 25 25 24 24 25 24 22 20 21 23 24 26 29 31 32 34 34 35
27 27 27 27 26 27 27 28 28 28 28 29 29 29 29 30 31 32 34 34 32 30 27 26 26 26 25 25 24 22 21 20 20 20 22 23 23 23 22 23 23 22 21 21 22 22 21 22 25 25 22 20 20 21 24 26 28 30 32 33 36 37 34
28 28 28 27 27 28 28 29 28 28 28 28 28 28 29 31 32 33 33 31 29 27 26 25 26 27 26 24 22 21 20 20 21 22 24 25 24 23 21 21 22 23 22 21 22 23 23 25 26 25 22 22 24 25 27 28 29 31 33 33 34 35 32
29 28 28 28 28 29 29 29 28 28 28 28 27 28 29 31 32 31 29 27 26 26 25 25 25 26 26 24 22 22 22 23 25 26 26 26 25 23 21 22 24 26 27 26 25 26 26 27 28 28 28 29 30 30 30 30 30 31 32 32 30 30 29
29 28 28 28 29 29 29 28 28 27 27 27 28 28 30 31 31 29 27 25 25 25 25 24 25 27 27 25 23 24 26 27 28 27 25 24 23 22 22 22 23 25 28 30 29 30 31 31 32 33 34 32 31 31 29 29 30 29 28 28 26 28 29
29 28 28 28 28 28 29 28 27 27 27 28 29 29 30 30 28 26 25 25 26 27 27 27 27 27 27 26 27 28 29 28 27 24 22 22 22 22 22 21 20 20 23 26 28 30 32 31 31 31 30 28 27 27 26 26 26 24 24 25 27 29 31
28 28 28 28 28 28 28 27 26 27 27 28 29 30 29 27 27 27 28 28 29 30 30 29 28 29 30 30 29 28 26 25 23 22 21 22 22 22 20 18 16 16 16 18 20 23 24 24 24 24 23 22 21 22 22 21 22 23 25 28 30 32 32
28 28 27 27 27 28 28 27 26 27 28 29 30 29 28 28 29 30 31 31 31 31 31 30 30 30 30 28 26 24 21 20 20 21 22 22 20 17 15 15 14 14 14 15 17 19 20 21 20 18 17 17 18 18 19 21 24 26 28 30 32 34 33
27 27 26 26 26 27 28 27 27 28 29 30 30 29 28 29 30 31 31 30 30 29 29 28 27 27 26 24 22 20 18 18 19 20 20 18 15 14 15 15 15 16 17 18 18 19 20 21 19 15 15 17 20 22 23 25 28 29 29 30 32 35 35
26 26 25 26 26 27 28 28 29 29 31 31 29 28 28 29 29 30 30 29 28 28 27 26 25 25 25 23 20 18 17 18 18 18 16 15 15 17 18 18 19 21 22 22 20 19 20 22 22 21 21 22 25 26 26 27 29 30 30 31 32 34 36
25 25 25 26 27 28 29 30 30 31 31 30 28 26 27 28 29 29 29 28 27 26 25 24 23 22 22 21 19 18 17 16 16 17 16 16 19 20 20 20 22 24 24 23 21 19 18 20 21 22 23 23 24 26 26 27 29 30 30 31 32 32 34
24 25 25 26 27 28 30 31 31 31 30 28 26 25 26 27 28 28 28 27 26 25 24 23 23 21 21 19 18 17 16 15 16 18 19 20 21 21 21 22 23 24 24 23 22 21 20 20 21 23 24 25 25 27 27 28 29 29 29 29 30 30 31
24 25 26 26 28 29 30 31 31 30 28 27 26 25 25 27 28 27 27 26 25 24 24 23 22 19 16 15 14 15 15 13 13 17 19 18 18 20 22 23 23 23 24 24 24 25 26 26 27 28 28 29 28 28 28 28 28 29 28 28 29 30 32
24 25 26 26 27 29 29 29 29 29 27 26 25 25 25 27 27 26 25 24 24 23 23 22 19 15 12 12 13 14 13 11 13 18 18 16 16 19 21 22 24 25 27 28 29 30 30 30 30 29 27 27 26 26 27 27 27 28 28 28 30 31 34
24 25 26 27 27 28 28 28 28 28 27 26 25 25 25 25 26 25 23 22 22 22 22 21 19 16 14 14 14 13 12 13 17 20 20 19 20 22 22 24 27 29 30 31 31 30 29 28 27 26 24 24 24 24 25 26 27 28 29 30 31 32 33
24 25 27 28 28 27 27 26 26 27 26 25 25 25 25 25 25 24 22 22 23 23 23 22 21 19 18 17 15 13 14 17 20 21 23 23 23 24 25 27 28 28 28 28 28 27 27 27 26 25 24 24 24 25 26 27 28 29 30 30 30 29 28
25 26 27 28 29 28 26 25 25 26 25 24 25 25 24 24 25 25 24 24 24 25 25 24 22 21 20 19 17 17 19 21 21 21 22 23 24 25 26 26 25 25 25 25 26 26 26 25 24 24 24 24 24 24 25 26 26 27 27 27 26 25 24
26 27 28 28 28 27 25 24 25 25 24 24 25 24 23 24 24 25 24 23 23 23 23 22 21 20 19 18 18 19 20 20 20 21 22 23 23 23 22 21 21 22 23 24 24 24 24 23 22 21 21 21 22 22 22 23 23 23 22 22 23 22 20
27 27 28 29 28 27 26 24 24 24 24 23 24 23 22 23 24 24 23 22 21 21 20 18 18 18 17 17 18 19 19 20 21 21 21 20 19 19 18 19 20 21 22 23 23 23 21 20 20 20 19 19 19 19 19 20 21 20 19 19 20 20 17
28 27 28 28 28 26 26 25 24 24 23 22 21 21 22 22 22 21 20 19 19 20 19 18 19 19 18 18 19 20 20 20 19 18 17 16 16 17 18 19 20 21 21 22 22 21 20 19 19 18 18 18 17 17 18 19 19 19 18 18 18 18 17
27 27 27 27 26 26 26 25 23 20 20 20 20 20 20 20 20 19 18 17 17 19 20 21 21 21 20 19 19 19 18 17 15 14 14 15 16 17 19 20 21 21 22 22 22 20 19 18 17 17 17 17 17 17 18 18 18 17 17 17 17 17 16
26 26 26 26 26 25 25 24 20 17 18 19 19 19 18 18 17 17 16 14 15 18 20 21 22 21 20 19 19 18 16 14 13 13 14 15 17 19 20 20 21 22 22 22 21 19 18 17 16 16 17 17 17 17 17 17 17 17 16 16 17 16 15
25 25 25 26 25 23 22 22 19 18 18 19 19 18 16 15 14 14 13 12 13 16 19 20 20 19 18 17 17 17 15 14 14 15 16 17 18 20 20 20 21 22 22 21 19 18 17 16 16 16 17 17 17 17 16 16 16 16 16 16 16 15 13
24 24 24 25 25 23 21 20 18 17 18 19 18 16 14 12 11 11 12 12 15 18 19 20 20 20 18 18 18 17 16 16 16 16 16 17 19 19 19 19 21 21 20 19 18 17 17 16 16 16 17 17 17 16 16 16 15 15 15 14 13 13 12
24 24 23 23 22 21 19 18 16 16 16 16 15 14 14 14 15 14 13 14 17 20 23 24 24 23 21 20 19 19 19 19 18 16 16 18 19 18 17 18 20 20 19 18 18 17 16 15 15 16 16 17 17 16 15 15 14 13 13 12 11 11 11
24 23 22 21 21 19 19 19 19 18 18 18 20 21 22 21 21 20 18 19 21 22 23 26 27 26 24 22 21 20 20 20 19 18 17 18 18 17 16 17 19 19 18 17 17 16 15 15 15 16 16 17 17 16 15 14 13 11 10 10 10 10 11
24 23 22 22 21 20 21 22 24 24 25 26 27 27 25 24 24 23 22 22 24 25 23 24 25 26 25 23 22 20 19 19 19 18 18 18 18 17 16 17 19 19 18 17 17 16 15 14 15 16 16 16 16 15 13 12 10 9 9 9 10 11 11
25 23 23 22 21 20 21 22 24 25 27 27 28 26 24 24 25 23 22 22 23 25 25 23 23 23 24 24 22 20 19 18 18 18 18 19 18 17 17 18 18 18 17 17 16 15 14 14 15 15 16 15 14 13 11 10 9 8 8 9 10 11 12
Wind_Direction
297 301 300 295 289 286 286 286 285 286 287 289 292 293 295 295 296 295 296 295 294 293 291 289 289 288 286 284 282 281 281 279 275 270 267 265 264 264 264 266 269 271 276 279 280 282 284 285 288 290 293 296 298 301 303 305 307 308 308 307 306 305 304
293 297 297 294 289 285 284 284 284 285 286 290 294 295 295 296 295 295 296 296 296 295 293 292 291 291 289 286 282 281 281 280 278 274 270 265 263 262 262 263 266 270 275 279 281 284 286 287 289 292 294 297 299 303 305 304 304 304 302 301 301 301 301
289 292 293 291 288 284 282 283 283 283 286 290 293 294 294 294 294 294 295 296 295 294 293 292 291 291 290 288 285 283 282 281 279 276 273 270 265 263 263 263 265 269 274 279 282 285 288 289 290 293 296 298 300 302 303 302 300 299 297 297 298 298 299
284 288 290 289 286 282 281 281 282 283 285 289 291 292 292 291 291 292 293 294 294 293 293 292 291 290 290 288 286 285 285 284 282 280 276 273 269 265 265 265 266 269 273 278 282 285 288 290 291 292 295 298 300 302 302 301 300 298 297 297 297 298 299
281 284 287 287 285 282 280 281 281 282 284 287 288 289 289 289 289 291 292 292 292 292 292 292 291 289 288 287 286 286 286 285 285 283 280 278 275 272 270 269 269 270 273 277 281 284 287 289 290 292 295 299 302 303 303 302 302 303 302 300 298 297 300
278 282 285 286 283 280 279 280 280 281 283 284 286 286 286 287 288 289 290 290 290 291 292 291 290 288 287 286 286 286 287 287 286 285 283 282 280 279 277 275 274 274 275 276 279 283 287 289 291 293 295 299 302 300 299 301 303 303 304 303 301 300 303
277 281 283 282 280 278 278 278 278 279 281 283 284 284 284 285 287 288 289 289 290 292 292 290 288 286 285 284 285 286 286 286 286 285 283 282 281 281 279 278 279 279 278 279 281 284 287 290 292 294 295 297 297 295 297 302 304 303 303 304 304 303 305
276 278 279 278 277 277 277 277 278 279 281 282 283 283 283 284 286 287 287 289 290 291 290 287 284 282 283 284 283 283 284 284 284 284 284 284 284 284 284 285 286 286 286 286 286 287 290 293 296 298 300 301 299 297 299 301 300 300 302 304 305 305 309
274 275 276 275 275 275 276 277 278 279 280 281 281 281 282 283 284 285 287 289 289 288 285 282 280 280 281 282 282 282 283 282 282 285 289 291 289 287 287 288 288 290 292 294 292 292 294 296 298 301 305 305 301 297 296 297 297 299 302 305 306 306 310
272 273 274 273 273 273 275 277 278 279 279 279 279 280 281 282 284 287 289 289 289 288 286 282 280 281 282 283 283 284 284 283 284 290 294 294 289 284 281 282 285 287 290 292 291 290 290 290 292 297 300 297 294 292 293 295 298 300 303 306 306 307 310
270 271 271 271 271 272 274 277 278 277 277 277 278 280 283 286 289 291 291 289 288 287 284 282 282 284 285 285 284 284 285 285 287 292 293 290 285 281 277 275 275 276 277 277 278 279 281 284 287 290 289 288 290 292 294 296 298 300 303 305 305 307 310
270 269 268 268 269 272 275 276 276 274 274 275 276 279 283 286 289 288 285 282 281 280 280 280 282 283 284 284 283 282 284 285 287 290 289 285 282 279 277 271 265 262 264 269 273 276 276 278 281 283 284 287 290 293 294 295 296 298 300 301 303 304 308
267 265 265 267 269 273 274 274 273 272 272 273 275 277 282 286 286 281 277 275 275 275 274 273 273 276 280 280 278 279 282 284 286 287 284 281 279 279 281 279 272 262 259 262 269 273 274 275 279 282 285 288 290 291 291 292 294 296 298 299 301 302 305
264 264 265 268 271 273 272 271 271 270 271 272 275 279 284 285 280 273 270 269 268 269 268 268 270 273 274 271 271 275 279 281 283 282 278 277 279 280 282 283 281 273 265 263 267 272 276 279 282 285 287 289 289 288 289 290 293 296 297 298 299 300 303
264 264 267 269 271 271 270 269 269 270 271 274 278 283 285 279 271 266 264 263 265 267 267 268 269 269 269 271 274 277 278 278 277 276 276 277 279 281 281 279 278 277 275 273 275 278 282 285 286 287 290 290 287 285 288 291 294 297 299 298 298 299 302
263 266 268 270 270 269 268 269 269 270 273 277 281 284 281 274 269 268 267 268 269 269 269 269 269 270 272 275 277 276 273 272 273 275 277 278 276 274 273 272 272 274 277 280 283 284 286 288 289 288 287 286 283 284 288 292 294 295 296 296 296 297 300
266 268 269 269 268 268 269 269 270 272 275 279 283 283 278 274 272 272 271 272 272 272 272 271 271 272 275 277 276 271 266 266 271 276 278 278 277 275 276 279 281 283 285 285 285 281 276 276 276 273 272 278 281 283 287 290 292 293 293 293 294 296 298
267 268 268 268 268 268 269 270 271 273 276 280 282 281 277 274 273 272 273 273 274 274 273 273 272 272 274 276 273 265 260 263 269 273 274 276 280 281 282 284 284 285 287 288 289 284 275 270 268 266 269 277 282 286 289 289 290 290 289 289 290 293 295
267 268 269 269 269 269 270 272 273 276 279 281 281 278 274 273 272 272 273 273 273 272 273 273 272 271 272 273 269 261 258 264 271 273 269 268 270 271 273 278 281 282 285 287 287 287 282 277 274 272 273 277 281 284 287 286 285 285 284 285 288 291 294
269 271 272 272 271 271 271 274 276 278 280 281 279 274 271 270 270 272 273 273 272 272 271 271 271 272 274 273 265 256 256 264 273 272 264 259 261 265 270 274 278 280 283 285 284 282 281 281 280 279 279 280 281 281 282 281 281 282 283 285 288 290 292
271 274 275 274 273 274 275 277 279 280 280 279 276 271 268 268 269 271 273 273 272 270 270 270 271 272 274 270 257 249 255 265 270 266 261 258 263 270 273 276 279 282 283 284 283 283 283 284 284 283 283 282 282 281 280 279 279 281 283 285 288 290 291
274 276 277 277 277 277 278 280 280 281 280 277 273 269 266 267 269 271 272 273 273 273 272 274 276 271 262 258 250 246 254 261 256 254 257 259 263 269 275 280 284 286 286 287 287 287 288 289 288 286 284 282 281 280 279 280 280 282 284 286 288 290 290
275 278 280 281 281 281 281 281 281 281 279 275 270 268 266 266 268 269 268 266 267 270 271 273 274 268 257 253 252 251 253 251 246 248 256 260 262 267 275 281 284 287 288 289 290 291 291 291 289 287 284 281 279 279 280 281 283 283 285 287 288 289 290
276 280 283 285 285 284 283 281 280 278 276 272 268 266 266 266 267 266 263 259 259 262 263 264 265 265 263 261 255 245 239 240 241 246 253 258 263 270 277 283 286 289 289 290 291 292 292 291 289 285 283 281 279 280 280 282 283 285 287 288 289 290 291
278 282 285 286 286 285 284 281 278 275 273 269 266 266 266 267 267 265 262 260 260 260 260 260 261 263 264 261 250 236 235 240 244 248 252 259 267 274 280 285 287 290 291 292 293 293 291 290 288 285 284 283 282 282 283 284 285 286 288 290 290 291 293
282 285 286 285 286 286 284 280 276 273 269 264 263 265 266 267 267 267 265 264 263 261 259 257 259 261 260 254 247 243 245 248 251 255 261 267 272 277 281 286 289 292 294 294 294 293 292 290 289 287 286 286 286 286 287 286 286 288 290 291 291 292 294
284 285 285 286 287 287 284 279 274 270 266 262 262 264 265 266 266 266 266 264 262 260 256 251 252 256 254 248 247 249 252 257 261 265 268 270 273 277 283 290 295 297 298 298 298 297 294 291 290 290 290 289 289 290 289 288 289 291 292 291 290 292 294
284 285 286 287 287 286 283 279 275 270 266 263 263 264 264 264 266 267 267 265 261 257 251 244 243 248 250 250 253 257 260 264 266 267 267 269 275 281 287 294 299 301 301 301 301 299 296 293 292 292 291 291 291 291 290 289 291 293 292 291 291 293 294
284 285 286 286 285 284 283 280 277 271 266 262 262 263 263 264 265 267 268 265 257 251 248 244 245 250 253 256 260 261 262 263 262 261 266 273 280 284 289 295 301 303 303 303 302 300 298 294 292 293 293 293 293 291 290 290 291 292 292 292 292 294 297
283 285 285 283 283 283 282 281 276 267 261 260 262 264 265 265 266 268 268 262 250 244 246 247 249 252 254 256 256 255 254 256 260 265 272 277 281 284 289 294 299 303 304 303 302 300 297 294 294 295 294 294 293 291 289 290 290 291 292 293 294 296 300
282 283 282 281 282 282 279 275 271 264 261 262 263 265 266 265 265 266 267 260 246 240 241 243 246 249 250 251 252 251 252 257 265 270 274 277 279 282 286 292 298 301 303 303 301 297 294 294 295 295 294 294 293 290 288 287 289 290 292 295 298 300 302
279 280 280 281 282 282 277 271 267 266 268 269 268 269 270 267 260 257 257 256 254 251 248 247 249 251 252 252 254 256 259 263 268 272 276 278 279 280 283 289 295 300 302 301 297 294 292 293 294 295 295 293 291 289 287 285 286 290 294 296 299 302 303
279 278 279 281 282 282 278 272 269 269 269 267 262 261 263 262 257 251 242 238 245 254 257 257 257 257 256 257 259 262 264 265 266 271 278 282 283 282 281 285 292 299 302 299 294 292 291 292 294 295 294 292 290 288 287 287 287 291 294 296 298 300 303
280 279 277 276 276 272 264 258 255 252 251 251 253 259 264 266 265 260 249 236 235 243 252 258 259 258 257 260 263 265 264 262 262 267 275 282 284 281 279 284 292 298 299 296 293 291 290 291 294 294 293 291 290 287 287 288 290 290 293 296 299 302 305
280 276 272 271 271 268 261 254 248 246 247 251 257 264 268 268 266 263 256 246 239 239 245 253 257 258 258 261 263 263 259 255 256 263 272 279 281 279 277 283 291 294 295 295 293 291 289 291 293 293 292 290 288 287 288 288 288 289 293 297 301 305 307
281 275 268 266 267 269 267 260 253 250 252 256 261 265 267 267 266 264 260 254 247 243 243 247 252 255 257 259 260 258 253 251 254 261 270 277 279 276 275 281 287 289 291 292 291 289 288 289 290 291 291 289 287 286 285 283 283 288 296 301 305 308 310